TimePST,TemperatureF,Dew PointF,Humidity,Sea Level PressureIn,VisibilityMPH,Wind Direction,Wind SpeedMPH,Gust SpeedMPH,PrecipitationIn,Events,Conditions,WindDirDegrees,DateUTC
12:54 AM,39.9,37.9,93,30.20,10.0,SSW,4.6,-,N/A,,Overcast,200,2012-12-06 08:54:00
1:42 AM,41.0,39.2,93,30.20,9.0,West,5.8,-,0.00,Rain,Light Rain,270,2012-12-06 09:42:00
1:54 AM,41.0,39.0,93,30.20,8.0,WSW,4.6,-,0.00,Rain,Light Rain,240,2012-12-06 09:54:00
2:31 AM,41.0,39.2,93,30.19,10.0,South,6.9,-,0.00,,Overcast,190,2012-12-06 10:31:00
2:54 AM,41.0,39.0,93,30.19,9.0,South,6.9,-,0.00,,Overcast,190,2012-12-06 10:54:00
3:46 AM,42.8,39.2,87,30.18,9.0,SSW,6.9,-,0.00,,Overcast,210,2012-12-06 11:46:00
3:54 AM,41.0,39.0,93,30.19,7.0,SW,6.9,-,0.00,Rain,Light Rain,220,2012-12-06 11:54:00
4:17 AM,41.0,39.2,93,30.17,10.0,SSW,3.5,-,0.01,,Overcast,200,2012-12-06 12:17:00
4:44 AM,41.0,39.2,93,30.17,10.0,WSW,3.5,-,0.01,,Overcast,250,2012-12-06 12:44:00
4:54 AM,41.0,39.0,93,30.17,8.0,SW,4.6,-,0.01,Rain,Light Rain,220,2012-12-06 12:54:00
5:12 AM,41.0,39.2,93,30.15,9.0,South,9.2,-,0.00,,Overcast,190,2012-12-06 13:12:00
5:54 AM,41.0,39.0,93,30.15,10.0,SSW,5.8,-,0.00,,Mostly Cloudy,200,2012-12-06 13:54:00
6:54 AM,42.1,39.0,89,30.14,6.0,SSW,10.4,-,0.00,Rain,Light Rain,200,2012-12-06 14:54:00
7:17 AM,41.0,39.2,93,30.13,10.0,SSW,9.2,-,0.01,,Overcast,200,2012-12-06 15:17:00
7:54 AM,42.1,39.0,89,30.13,9.0,South,11.5,-,0.01,Rain,Light Rain,190,2012-12-06 15:54:00
8:54 AM,42.1,39.9,92,30.14,6.0,South,11.5,-,0.00,Rain,Light Rain,190,2012-12-06 16:54:00
9:35 AM,42.8,39.2,87,30.14,4.0,SSW,10.4,-,0.01,Rain,Light Rain,200,2012-12-06 17:35:00
9:54 AM,42.1,39.9,92,30.14,5.0,SSW,9.2,-,0.03,Rain,Light Rain,200,2012-12-06 17:54:00
10:54 AM,43.0,41.0,93,30.13,5.0,South,11.5,-,0.05,Rain,Light Rain,190,2012-12-06 18:54:00
11:54 AM,43.0,41.0,93,30.12,3.0,WNW,8.1,-,0.03,Rain,Rain,300,2012-12-06 19:54:00
11:57 AM,42.8,41.0,93,30.11,4.0,NW,8.1,-,0.01,Rain,Rain,310,2012-12-06 19:57:00
12:15 PM,44.6,39.2,81,30.11,4.0,SSW,8.1,-,0.09,Rain,Rain,200,2012-12-06 20:15:00
12:54 PM,44.1,42.1,93,30.11,3.0,South,6.9,-,0.14,Rain,Rain,190,2012-12-06 20:54:00
1:54 PM,44.1,42.1,93,30.09,3.0,SSW,6.9,-,0.07,Rain,Light Rain,200,2012-12-06 21:54:00
2:01 PM,44.6,42.8,93,30.09,10.0,SSW,9.2,-,0.00,Rain,Light Rain,200,2012-12-06 22:01:00
2:54 PM,45.0,42.1,90,30.09,7.0,SW,6.9,-,0.03,Rain,Light Rain,220,2012-12-06 22:54:00
3:54 PM,44.1,43.0,96,30.09,7.0,SSW,4.6,-,0.07,Rain,Light Rain,200,2012-12-06 23:54:00
4:25 PM,44.6,42.8,93,30.10,4.0,WSW,4.6,-,0.01,Rain,Light Rain,240,2012-12-07 00:25:00
4:54 PM,43.0,41.0,93,30.10,10.0,SSW,5.8,-,0.01,,Mostly Cloudy,210,2012-12-07 00:54:00
5:54 PM,43.0,41.0,93,30.10,10.0,SSW,6.9,-,N/A,,Overcast,210,2012-12-07 01:54:00
6:08 PM,44.6,41.0,87,30.10,10.0,SW,6.9,-,N/A,,Overcast,220,2012-12-07 02:08:00
6:19 PM,44.6,41.0,87,30.10,9.0,SW,6.9,-,N/A,,Mostly Cloudy,220,2012-12-07 02:19:00
6:54 PM,43.0,39.9,89,30.12,10.0,SW,3.5,-,N/A,,Partly Cloudy,230,2012-12-07 02:54:00
7:54 PM,39.9,39.0,97,30.12,10.0,SSW,5.8,-,N/A,,Clear,210,2012-12-07 03:54:00
8:54 PM,41.0,39.0,93,30.14,10.0,SSW,6.9,-,N/A,,Partly Cloudy,200,2012-12-07 04:54:00
9:54 PM,39.0,37.9,96,30.14,10.0,SSW,8.1,-,N/A,,Clear,200,2012-12-07 05:54:00
10:27 PM,41.0,39.2,93,30.14,10.0,South,8.1,-,N/A,,Mostly Cloudy,190,2012-12-07 06:27:00
10:40 PM,41.0,39.2,93,30.14,10.0,SSW,5.8,-,N/A,,Mostly Cloudy,200,2012-12-07 06:40:00
10:54 PM,41.0,39.9,96,30.14,10.0,SSW,4.6,-,N/A,,Mostly Cloudy,210,2012-12-07 06:54:00
11:54 PM,41.0,39.9,96,30.14,10.0,South,5.8,-,0.01,,Overcast,180,2012-12-07 07:54:00